Location: Newark
(35.6799°N, 139.7636°E)
Time: 12:36:38
(UTC+00:00)

Courier 1B Rocket - Pass Details

Date: 14 December 2019
Orbit: 920 x 1202 km, 28.2° (Epoch: 18 January)

Event Time Altitude Azimuth Distance (km) Brightness Sun altitude
Exits shadow 20:11:37 13° 240° (WSW) 2,720 6.9 -17.9°
Maximum altitude 20:17:39 44° 174° (S) 1,426 6.0 -16.8°
Drops below altitude 10° 20:24:00 10° 104° (ESE) 2,771 8.8 -15.5°
Sets 20:26:42 0° 98° (E) 3,682 9.8 -15.0°
